{"data":{"norad_id":48283,"epoch":"2026-05-25T03:13:30.392256Z","epoch_age_seconds":63170,"freshness":"FRESH","line1":"1 48283U 21036H   26145.13437954 -.00000151  00000+0  68987-5 0  9991","line2":"2 48283  53.1595  79.8259 0001411  90.7697 269.3466 15.31695015280125","mean_motion":15.31695015,"eccentricity":0.0001411,"inclination_deg":53.1595,"raan_deg":79.8259,"arg_perigee_deg":90.7697,"mean_anomaly_deg":269.3466,"bstar":6.8987e-6,"rev_number":28012,"period_min":94.01349393306,"perigee_km":469.78847665077,"apogee_km":471.72123393233,"semimajor_km":6848.8918552916,"source":"CELESTRAK","updated_at":"2026-05-25T13:38:16.673079Z"}}